Tracking 35274 objects as of 10-Sep-2026
HD Live streaming from Space Station
objects crossing your sky now

CZ-2F R/B


CZ-2F R/B is no longer on orbit


NORAD ID: 46390
Int'l Code: 2020-063B
Launch date: September 4, 2020
Source: People's Republic of China (PRC)
Launch site: Jiuquan Satellite Launch Center, China (JSC)
Decay date: 2021-07-01

Note: This is a ROCKET BODY
Your satellite tracking list
Your tracking list is empty




NASA's NSSDC Master Catalog

Two Line Element Set (TLE):
1 46390U 20063B   21182.28874689  .23468418  12743-4  12750-3 0  9994
2 46390  50.1712 239.0903 0007795 296.2910  63.9094 16.54443464 47747
Source of the keplerian elements: AFSPC